Regional Weather Roundup
Issued by NWS Columbia, SC

Home | Current Version | Previous Version | Text Only | Print | Product List | Glossary On
Versions: 1 2 3 4 5 6 7 8 9 10 11 12 13 14 15 16 17 18 19 20 21 22 23 24 25 26 27 28 29 30 31 32 33 34 35 36 37 38 39 40 41 42 43 44 45 46 47 48 49 50
000
ASUS42 KCAE 281510
RWRCAE
REGIONAL WEATHER ROUNDUP
NATIONAL WEATHER SERVICE COLUMBIA SC
1000 AM EST FRI NOV 28 2014

NOTE: "FAIR" INDICATES FEW OR NO CLOUDS BELOW 12,000 FEET WITH NO
SIGNIFICANT WEATHER AND/OR OBSTRUCTIONS TO VISIBILITY.

NOT ALL STATIONS ARE QUALITY CONTROLLED BY THE NATIONAL
WEATHER SERVICE. USE DATA WITH CAUTION...ESPECIALLY
DEWPOINT OBSERVATIONS.

SCZ001>056-GAZ040-063>065-077-281600-
...UPSTATE SOUTH CAROLINA...

CITY           SKY/WX    TMP DP  RH WIND       PRES   REMARKS
ANDERSON       SUNNY     37  21  52 S3        30.40R
LIBERTY        FAIR      35  24  66 CALM      30.37F
SPARTANBURG    FAIR      37  21  52 N6        30.40R WCI  33
CLEMSON        SUNNY     37  20  50 S3        30.40R
GREENVILLE     SUNNY     39  16  39 CALM      30.38R
GREENWOOD      SUNNY     37  21  52 E3        30.43R
GREER          SUNNY     38  18  44 VRB3      30.37R
ROCK HILL      SUNNY     38  19  46 N12       30.38F WCI  30
CHESTER        FAIR      41  19  42 N9        30.38F


...CENTRAL SOUTH CAROLINA...

CITY           SKY/WX    TMP DP  RH WIND       PRES   REMARKS
COLUMBIA APT   SUNNY     41  21  44 N6        30.42R
COLUMBIA OWENS SUNNY     40  21  46 VRB7      30.44R
DARLINGTON     SUNNY     41  21  45 N12       30.42R
FLORENCE       SUNNY     41  22  46 N13       30.40R
MCENTIRE ANGB  SUNNY     40  21  45 N10       30.43R WCI  34
ORANGEBURG     SUNNY     41  22  46 NE10G22   30.43R
SUMTER SHAW    SUNNY     39  23  52 N10       30.41R WCI  33
NEWBERRY       FAIR      37  21  52 NE7       30.43F WCI  32
AIKEN          FAIR      37  25  60 NE9       30.43F WCI  31
BARNWELL       FAIR      41  28  60 N9        30.43S
CAMDEN         FAIR      39  19  45 N7        30.43R WCI  34
LANCASTER      FAIR      39  19  45 N6        30.39F WCI  35
WINNSBORO      FAIR      37  23  56 NE7       30.39F WCI  32


...EASTERN AND COASTAL SOUTH CAROLINA...

CITY           SKY/WX    TMP DP  RH WIND       PRES   REMARKS
MYRTLE BEACH   SUNNY     41  23  48 N16       30.38S
N MYRTLE BCH   SUNNY     42  24  49 N14       30.37R
CONWAY         FAIR      41  27  56 N8        30.39R
MARION         FAIR      41  23  48 N15       30.40R
FLORENCE       SUNNY     41  22  46 N13       30.40R
DARLINGTON     SUNNY     41  21  45 N12       30.42R
CHARLESTON APT SUNNY     43  22  43 N12G18    30.40R
MOUNT PLEASANT FAIR      43  25  49 N8G17     30.39S
WALTERBORO     SUNNY     43  23  45 N7        30.43R
BEAUFORT       SUNNY     43  25  49 N14       30.41R


...EASTERN GEORGIA...

CITY           SKY/WX    TMP DP  RH WIND       PRES   REMARKS
AUGUSTA BUSH F SUNNY     40  23  50 NE5       30.43S
AUGUSTA DANIEL SUNNY     40  22  48 VRB5      30.43R
THOMSON        SUNNY     40  30  68 E6        30.46S
WASHINGTON     FAIR      41  30  65 E6        30.41S
SYLVANIA       SUNNY     43  32  63 NE10      30.44R
STATESBORO     SUNNY     41  29  64 E6        30.43R
SAVANNAH       SUNNY     45  26  47 NE10      30.42R


...SOUTHERN NORTH CAROLINA...

CITY           SKY/WX    TMP DP  RH WIND       PRES   REMARKS
CHARLOTTE      SUNNY     38  17  42 N10       30.38F WCI  31
MONROE         SUNNY     38  18  44 N9        30.37S WCI  31
WADESBORO      SUNNY     39  21  49 NW9       30.42R WCI  33
ROCKINGHAM     SUNNY     37  21  51 NW10G16   30.39S WCI  30
RUTHERFORDTON  MOSUNNY   35  19  51 N9        30.38R WCI  28
ASHEVILLE      SUNNY     30  17  58 N12       30.35R WCI  20

$$


USA.gov is the U.S. government's official web portal to all federal, state and local government web resources and services.